^^

..:: Storico WU ::..




Lo storico viene creato da WUnderground con i dati che la stazione Meteomincio invia al loro server. L' aggiornamento viene fatto ogni 5 minuti circa, tuttavia possono esserci intervalli pił ampi a causa di errori, interruzioni di servizio o problemi nell' invio tramite FTP.


Storico stazione MeteoMincio
Giorno Sommario per Giugno 17, 2022 Unità:  Inglese    Metrico   Entrambi
Giorno Settimana Mese Anno
  Max: Min: Media:
Temperatura: 93.2 °F 71.6 °F 82.2 °F
Dew Point: 71.6 °F 62.6 °F 67.5 °F
Umidità: 81% 44% 62%
Velocità vento: 8.1mph 0mph 3.5mph
Raffica: 11.8mph - -
Direzione- - East
Pressione: 30.1 in 30 in -
Precipitazioni: 0 in    
 
 
Tabulato Dati per Giugno 17, 2022
Ora Temperatura Dew Point Pressione Direzione Velocità vento Raffica Umidità Intensità pioggia (oraria) Info solare Situazione
00:04 77 °F 66.2 °F 30 in ENE 6.2 mph 9.3 mph 71% 0 in 0.00 W/m2 unknown
00:09 77 °F 66.2 °F 30 in ENE 6.2 mph 9.3 mph 71% 0 in 0.00 W/m2 unknown
00:14 77 °F 66.2 °F 30 in ENE 6.2 mph 8.7 mph 71% 0 in 0.00 W/m2 unknown
00:19 77 °F 66.2 °F 30 in ENE 5 mph 8.1 mph 71% 0 in 0.00 W/m2 unknown
00:24 77 °F 66.2 °F 30 in ENE 5 mph 8.1 mph 72% 0 in 0.00 W/m2 unknown
00:29 75.2 °F 66.2 °F 30 in ENE 6.2 mph 8.1 mph 72% 0 in 0.00 W/m2 unknown
00:34 75.2 °F 66.2 °F 30 in ENE 6.8 mph 9.3 mph 72% 0 in 0.00 W/m2 unknown
00:39 75.2 °F 66.2 °F 30 in ENE 6.8 mph 9.3 mph 72% 0 in 0.00 W/m2 unknown
00:44 75.2 °F 66.2 °F 30 in ENE 6.2 mph 9.3 mph 71% 0 in 0.00 W/m2 unknown
00:49 75.2 °F 66.2 °F 30 in ENE 6.2 mph 8.7 mph 71% 0 in 0.00 W/m2 unknown
00:54 75.2 °F 66.2 °F 30 in ENE 5 mph 6.8 mph 71% 0 in 0.00 W/m2 unknown
00:59 75.2 °F 66.2 °F 30 in ENE 5 mph 8.1 mph 71% 0 in 0.00 W/m2 unknown
01:04 75.2 °F 64.4 °F 30 in ENE 5.6 mph 8.1 mph 70% 0 in 0.00 W/m2 unknown
01:09 75.2 °F 64.4 °F 30 in ENE 6.2 mph 8.1 mph 70% 0 in 0.00 W/m2 unknown
01:14 75.2 °F 64.4 °F 30 in ENE 5 mph 6.8 mph 70% 0 in 0.00 W/m2 unknown
01:19 75.2 °F 64.4 °F 30 in ENE 5.6 mph 8.1 mph 69% 0 in 0.00 W/m2 unknown
01:24 75.2 °F 64.4 °F 30 in ENE 6.2 mph 8.1 mph 68% 0 in 0.00 W/m2 unknown
01:29 75.2 °F 64.4 °F 30 in ENE 6.2 mph 8.1 mph 68% 0 in 0.00 W/m2 unknown
01:34 75.2 °F 64.4 °F 30 in ENE 5.6 mph 8.1 mph 68% 0 in 0.00 W/m2 unknown
01:39 75.2 °F 64.4 °F 30 in ENE 6.2 mph 8.1 mph 68% 0 in 0.00 W/m2 unknown
01:44 75.2 °F 64.4 °F 30 in ENE 6.2 mph 8.1 mph 68% 0 in 0.00 W/m2 unknown
01:49 75.2 °F 64.4 °F 30 in ENE 7.5 mph 11.8 mph 69% 0 in 0.00 W/m2 unknown
01:54 75.2 °F 64.4 °F 30 in ENE 8.1 mph 11.8 mph 69% 0 in 0.00 W/m2 unknown
01:59 75.2 °F 64.4 °F 30 in ENE 8.1 mph 11.8 mph 70% 0 in 0.00 W/m2 unknown
02:04 75.2 °F 64.4 °F 30 in ENE 6.8 mph 11.8 mph 70% 0 in 0.00 W/m2 unknown
02:09 75.2 °F 66.2 °F 30 in ENE 5 mph 9.3 mph 71% 0 in 0.00 W/m2 unknown
02:14 75.2 °F 66.2 °F 30 in ENE 5 mph 9.3 mph 71% 0 in 0.00 W/m2 unknown
02:19 75.2 °F 66.2 °F 30 in ENE 5 mph 9.3 mph 71% 0 in 0.00 W/m2 unknown
02:23 75.2 °F 66.2 °F 30 in East 5 mph 8.7 mph 71% 0 in 0.00 W/m2 unknown
02:29 75.2 °F 66.2 °F 30 in ENE 5 mph 6.8 mph 71% 0 in 0.00 W/m2 unknown
02:34 75.2 °F 66.2 °F 30 in ENE 5 mph 8.1 mph 71% 0 in 0.00 W/m2 unknown
02:39 75.2 °F 64.4 °F 30 in NE 5.6 mph 8.1 mph 71% 0 in 0.00 W/m2 unknown
02:44 75.2 °F 64.4 °F 30 in ENE 6.2 mph 8.1 mph 71% 0 in 0.00 W/m2 unknown
02:49 75.2 °F 64.4 °F 30 in ENE 5 mph 8.1 mph 71% 0 in 0.00 W/m2 unknown
02:54 75.2 °F 64.4 °F 30 in ENE 5 mph 8.1 mph 71% 0 in 0.00 W/m2 unknown
02:59 75.2 °F 64.4 °F 30 in ENE 5 mph 8.1 mph 71% 0 in 0.00 W/m2 unknown
03:04 75.2 °F 64.4 °F 30 in ENE 5 mph 6.8 mph 71% 0 in 0.00 W/m2 unknown
03:09 75.2 °F 64.4 °F 30 in ENE 3.7 mph 5 mph 71% 0 in 0.00 W/m2 unknown
03:14 75.2 °F 64.4 °F 30 in ENE 3.7 mph 6.8 mph 71% 0 in 0.00 W/m2 unknown
03:19 75.2 °F 64.4 °F 30 in ENE 4.3 mph 6.8 mph 71% 0 in 0.00 W/m2 unknown
03:24 75.2 °F 64.4 °F 30 in ENE 3.7 mph 6.8 mph 71% 0 in 0.00 W/m2 unknown
03:29 75.2 °F 64.4 °F 30 in East 3.1 mph 5 mph 71% 0 in 0.00 W/m2 unknown
03:34 75.2 °F 64.4 °F 30 in ENE 3.1 mph 5 mph 71% 0 in 0.00 W/m2 unknown
03:39 73.4 °F 64.4 °F 30 in ENE 2.5 mph 4.3 mph 72% 0 in 0.00 W/m2 unknown
03:44 73.4 °F 64.4 °F 30 in ENE 1.9 mph 5 mph 72% 0 in 0.00 W/m2 unknown
03:49 73.4 °F 64.4 °F 30 in ENE 1.9 mph 3.1 mph 72% 0 in 0.00 W/m2 unknown
03:54 73.4 °F 64.4 °F 30 in ENE 1.9 mph 3.7 mph 73% 0 in 0.00 W/m2 unknown
03:59 73.4 °F 64.4 °F 30 in NE 2.5 mph 3.7 mph 73% 0 in 0.00 W/m2 unknown
04:03 73.4 °F 64.4 °F 30 in ENE 2.5 mph 3.7 mph 73% 0 in 0.00 W/m2 unknown
04:08 73.4 °F 64.4 °F 30 in ENE 2.5 mph 3.7 mph 73% 0 in 0.00 W/m2 unknown
04:13 73.4 °F 64.4 °F 30 in ENE 1.9 mph 3.7 mph 74% 0 in 0.00 W/m2 unknown
04:18 73.4 °F 64.4 °F 30 in ENE 2.5 mph 5 mph 74% 0 in 0.00 W/m2 unknown
04:23 73.4 °F 64.4 °F 30 in ENE 3.1 mph 5 mph 74% 0 in 0.00 W/m2 unknown
04:28 73.4 °F 64.4 °F 30 in ENE 3.1 mph 4.3 mph 74% 0 in 0.00 W/m2 unknown
04:34 73.4 °F 64.4 °F 30 in ENE 3.1 mph 5 mph 75% 0 in 0.00 W/m2 unknown
04:38 73.4 °F 64.4 °F 30 in NE 2.5 mph 3.7 mph 75% 0 in 0.00 W/m2 unknown
04:43 73.4 °F 64.4 °F 30 in NE 2.5 mph 3.7 mph 76% 0 in 0.00 W/m2 unknown
04:48 73.4 °F 64.4 °F 30 in NE 1.9 mph 3.7 mph 76% 0 in 0.00 W/m2 unknown
04:53 73.4 °F 64.4 °F 30 in NE 1.9 mph 3.7 mph 76% 0 in 0.00 W/m2 unknown
04:58 73.4 °F 64.4 °F 30 in NE 0.6 mph 2.5 mph 76% 0 in 0.00 W/m2 unknown
05:04 73.4 °F 64.4 °F 30 in NE 1.2 mph 1.9 mph 76% 0 in 0.00 W/m2 unknown
05:09 73.4 °F 64.4 °F 30 in Calm   1.2 mph 76% 0 in 0.00 W/m2 unknown
05:14 73.4 °F 64.4 °F 30 in Calm     78% 0 in 0.00 W/m2 unknown
05:19 73.4 °F 64.4 °F 30 in Calm     79% 0 in 0.00 W/m2 unknown
05:23 71.6 °F 64.4 °F 30 in Calm     79% 0 in 0.00 W/m2 unknown
05:29 71.6 °F 64.4 °F 30 in Calm     80% 0 in 0.00 W/m2 unknown
05:33 71.6 °F 64.4 °F 30 in NE 0.6 mph 1.2 mph 80% 0 in 5.00 W/m2 unknown
05:39 71.6 °F 64.4 °F 30 in NE 0.6 mph 1.2 mph 80% 0 in 7.00 W/m2 unknown
05:44 71.6 °F 64.4 °F 30 in Calm   1.2 mph 81% 0 in 11.00 W/m2 unknown
05:49 71.6 °F 64.4 °F 30 in NE 1.9 mph 3.7 mph 81% 0 in 12.00 W/m2 unknown
05:54 71.6 °F 64.4 °F 30 in NNE 2.5 mph 3.7 mph 81% 0 in 16.00 W/m2 unknown
05:59 71.6 °F 66.2 °F 30 in NNE 2.5 mph 3.7 mph 81% 0 in 19.00 W/m2 unknown
06:04 71.6 °F 64.4 °F 30 in NE 2.5 mph 3.7 mph 80% 0 in 19.00 W/m2 unknown
06:08 71.6 °F 64.4 °F 30 in NE 2.5 mph 3.7 mph 81% 0 in 19.00 W/m2 unknown
06:14 71.6 °F 66.2 °F 30 in NNE 2.5 mph 3.7 mph 81% 0 in 33.00 W/m2 unknown
06:19 71.6 °F 66.2 °F 30 in NNE 1.9 mph 3.7 mph 81% 0 in 40.00 W/m2 unknown
06:24 71.6 °F 66.2 °F 30 in NNE 1.2 mph 3.1 mph 80% 0 in 47.00 W/m2 unknown
06:29 71.6 °F 66.2 °F 30 in Calm   1.2 mph 80% 0 in 54.00 W/m2 unknown
06:34 71.6 °F 66.2 °F 30 in Calm     80% 0 in 63.00 W/m2 unknown
06:39 71.6 °F 66.2 °F 30 in Calm     80% 0 in 72.00 W/m2 unknown
06:44 73.4 °F 66.2 °F 30 in Calm     80% 0 in 84.00 W/m2 unknown
06:49 73.4 °F 66.2 °F 30 in Calm     80% 0 in 95.00 W/m2 unknown
06:54 73.4 °F 66.2 °F 30 in Calm     80% 0 in 104.00 W/m2 unknown
06:59 73.4 °F 66.2 °F 30 in Calm   1.9 mph 79% 0 in 114.00 W/m2 unknown
07:04 73.4 °F 66.2 °F 30 in NE 0.6 mph 2.5 mph 77% 0 in 128.00 W/m2 unknown
07:09 75.2 °F 66.2 °F 30 in NE 0.6 mph 2.5 mph 77% 0 in 156.00 W/m2 unknown
07:14 75.2 °F 66.2 °F 30 in NE 0.6 mph 2.5 mph 76% 0 in 176.00 W/m2 unknown
07:19 75.2 °F 66.2 °F 30 in NE 1.2 mph 2.5 mph 76% 0 in 190.00 W/m2 unknown
07:24 75.2 °F 66.2 °F 30 in NE 1.9 mph 3.7 mph 76% 0 in 181.00 W/m2 unknown
07:29 75.2 °F 66.2 °F 30 in NE 1.9 mph 3.7 mph 74% 0 in 165.00 W/m2 unknown
07:34 75.2 °F 66.2 °F 30 in ENE 1.2 mph 3.7 mph 76% 0 in 67.00 W/m2 unknown
07:39 75.2 °F 66.2 °F 30 in East 1.2 mph 3.1 mph 78% 0 in 63.00 W/m2 unknown
07:44 75.2 °F 68 °F 30.1 in East 1.2 mph 2.5 mph 80% 0 in 90.00 W/m2 unknown
07:49 73.4 °F 68 °F 30.1 in East 1.2 mph 2.5 mph 80% 0 in 100.00 W/m2 unknown
07:54 73.4 °F 68 °F 30.1 in ESE 1.2 mph 1.9 mph 80% 0 in 221.00 W/m2 unknown
07:59 75.2 °F 68 °F 30.1 in Calm   1.2 mph 79% 0 in 299.00 W/m2 unknown
08:04 75.2 °F 68 °F 30.1 in Calm   1.2 mph 78% 0 in 299.00 W/m2 unknown
08:09 77 °F 68 °F 30.1 in East 0.6 mph 1.2 mph 76% 0 in 309.00 W/m2 unknown
08:14 77 °F 68 °F 30.1 in ESE 0.6 mph 2.5 mph 74% 0 in 315.00 W/m2 unknown
08:18 77 °F 68 °F 30.1 in SSE 1.2 mph 3.1 mph 75% 0 in 320.00 W/m2 unknown
08:24 77 °F 68 °F 30.1 in South 1.2 mph 3.7 mph 75% 0 in 315.00 W/m2 unknown
08:29 77 °F 68 °F 30.1 in SW 2.5 mph 3.7 mph 75% 0 in 315.00 W/m2 unknown
08:34 77 °F 68 °F 30.1 in SW 1.9 mph 3.7 mph 74% 0 in 424.00 W/m2 unknown
08:39 77 °F 68 °F 30.1 in ESE 1.9 mph 3.7 mph 73% 0 in 448.00 W/m2 unknown
08:44 78.8 °F 68 °F 30.1 in SE 1.2 mph 3.7 mph 73% 0 in 450.00 W/m2 unknown
08:49 78.8 °F 68 °F 30.1 in ESE 1.9 mph 3.7 mph 72% 0 in 468.00 W/m2 unknown
08:54 78.8 °F 69.8 °F 30.1 in SSE 1.9 mph 3.7 mph 74% 0 in 480.00 W/m2 unknown
08:59 78.8 °F 69.8 °F 30.1 in SE 1.9 mph 3.7 mph 74% 0 in 487.00 W/m2 unknown
09:04 78.8 °F 69.8 °F 30.1 in East 1.9 mph 3.7 mph 72% 0 in 462.00 W/m2 unknown
09:09 78.8 °F 69.8 °F 30.1 in ESE 1.9 mph 3.7 mph 72% 0 in 534.00 W/m2 unknown
09:14 78.8 °F 68 °F 30.1 in ESE 1.9 mph 3.7 mph 71% 0 in 529.00 W/m2 unknown
09:19 80.6 °F 69.8 °F 30.1 in East 2.5 mph 5 mph 70% 0 in 570.00 W/m2 unknown
09:24 80.6 °F 69.8 °F 30.1 in ESE 2.5 mph 5 mph 70% 0 in 578.00 W/m2 unknown
09:29 82.4 °F 69.8 °F 30.1 in ENE 2.5 mph 6.8 mph 70% 0 in 554.00 W/m2 unknown
09:34 82.4 °F 69.8 °F 30.1 in ENE 3.1 mph 6.8 mph 68% 0 in 541.00 W/m2 unknown
09:38 82.4 °F 69.8 °F 30.1 in ENE 3.1 mph 6.8 mph 68% 0 in 582.00 W/m2 unknown
09:44 82.4 °F 69.8 °F 30.1 in SE 3.1 mph 6.8 mph 66% 0 in 619.00 W/m2 unknown
09:49 82.4 °F 69.8 °F 30.1 in ESE 3.7 mph 6.8 mph 66% 0 in 608.00 W/m2 unknown
09:54 82.4 °F 69.8 °F 30.1 in East 5 mph 8.1 mph 65% 0 in 656.00 W/m2 unknown
09:59 82.4 °F 69.8 °F 30.1 in East 5.6 mph 8.1 mph 64% 0 in 659.00 W/m2 unknown
10:04 82.4 °F 69.8 °F 30.1 in ESE 5.6 mph 8.1 mph 64% 0 in 715.00 W/m2 unknown
10:09 82.4 °F 69.8 °F 30.1 in East 5 mph 8.1 mph 65% 0 in 728.00 W/m2 unknown
10:14 84.2 °F 69.8 °F 30.1 in ENE 5 mph 8.1 mph 64% 0 in 745.00 W/m2 unknown
10:19 84.2 °F 69.8 °F 30.1 in East 5 mph 8.1 mph 63% 0 in 738.00 W/m2 unknown
10:24 84.2 °F 69.8 °F 30.1 in East 5 mph 8.1 mph 63% 0 in 729.00 W/m2 unknown
10:29 82.4 °F 69.8 °F 30.1 in SE 5 mph 6.8 mph 64% 0 in 729.00 W/m2 unknown
10:34 84.2 °F 69.8 °F 30.1 in SE 5 mph 6.8 mph 64% 0 in 761.00 W/m2 unknown
10:39 84.2 °F 69.8 °F 30.1 in SE 4.3 mph 6.8 mph 65% 0 in 722.00 W/m2 unknown
10:44 84.2 °F 69.8 °F 30.1 in SSE 5 mph 6.8 mph 63% 0 in 722.00 W/m2 unknown
10:49 84.2 °F 69.8 °F 30.1 in WNW 5 mph 6.8 mph 63% 0 in 701.00 W/m2 unknown
10:54 84.2 °F 69.8 °F 30.1 in ENE 4.3 mph 6.2 mph 63% 0 in 733.00 W/m2 unknown
10:59 84.2 °F 69.8 °F 30.1 in ESE 3.7 mph 6.2 mph 60% 0 in 733.00 W/m2 unknown
11:04 84.2 °F 69.8 °F 30.1 in SE 3.1 mph 6.2 mph 60% 0 in 719.00 W/m2 unknown
11:09 84.2 °F 68 °F 30.1 in ENE 3.1 mph 6.8 mph 59% 0 in 719.00 W/m2 unknown
11:14 84.2 °F 69.8 °F 30.1 in East 4.3 mph 6.8 mph 60% 0 in 737.00 W/m2 unknown
11:19 86 °F 69.8 °F 30.1 in East 5 mph 6.8 mph 60% 0 in 740.00 W/m2 unknown
11:24 86 °F 69.8 °F 30.1 in East 5 mph 6.8 mph 60% 0 in 758.00 W/m2 unknown
11:29 86 °F 69.8 °F 30.1 in East 5 mph 6.8 mph 58% 0 in 754.00 W/m2 unknown
11:34 86 °F 69.8 °F 30.1 in SE 3.7 mph 6.8 mph 59% 0 in 745.00 W/m2 unknown
11:39 86 °F 69.8 °F 30.1 in SSE 3.1 mph 6.2 mph 58% 0 in 782.00 W/m2 unknown
11:44 86 °F 69.8 °F 30.1 in East 3.1 mph 6.2 mph 60% 0 in 782.00 W/m2 unknown
11:49 86 °F 69.8 °F 30.1 in NNW 1.9 mph 6.2 mph 57% 0 in 775.00 W/m2 unknown
11:54 86 °F 69.8 °F 30.1 in ESE 3.1 mph 8.1 mph 58% 0 in 789.00 W/m2 unknown
11:59 86 °F 69.8 °F 30.1 in East 3.7 mph 8.1 mph 57% 0 in 819.00 W/m2 unknown
12:04 86 °F 69.8 °F 30.1 in ESE 3.7 mph 6.8 mph 57% 0 in 816.00 W/m2 unknown
12:09 87.8 °F 69.8 °F 30.1 in East 3.7 mph 8.1 mph 56% 0 in 838.00 W/m2 unknown
12:14 87.8 °F 69.8 °F 30.1 in ENE 5 mph 8.1 mph 56% 0 in 775.00 W/m2 unknown
12:19 87.8 °F 69.8 °F 30.1 in ENE 5 mph 8.1 mph 56% 0 in 772.00 W/m2 unknown
12:24 87.8 °F 69.8 °F 30.1 in ESE 3.7 mph 8.1 mph 55% 0 in 803.00 W/m2 unknown
12:29 87.8 °F 69.8 °F 30.1 in ESE 3.1 mph 8.1 mph 57% 0 in 823.00 W/m2 unknown
12:34 87.8 °F 69.8 °F 30.1 in East 3.1 mph 5 mph 58% 0 in 823.00 W/m2 unknown
12:39 87.8 °F 71.6 °F 30.1 in ENE 4.3 mph 8.1 mph 57% 0 in 830.00 W/m2 unknown
12:44 87.8 °F 71.6 °F 30.1 in East 5 mph 8.1 mph 57% 0 in 831.00 W/m2 unknown
12:49 87.8 °F 71.6 °F 30.1 in NE 5 mph 8.1 mph 57% 0 in 831.00 W/m2 unknown
12:54 87.8 °F 69.8 °F 30.1 in ENE 3.7 mph 8.1 mph 56% 0 in 844.00 W/m2 unknown
12:59 87.8 °F 69.8 °F 30.1 in NE 4.3 mph 6.8 mph 55% 0 in 846.00 W/m2 unknown
13:04 89.6 °F 69.8 °F 30.1 in SE 3.1 mph 6.8 mph 55% 0 in 861.00 W/m2 unknown
13:09 89.6 °F 71.6 °F 30.1 in South 1.9 mph 3.7 mph 58% 0 in 856.00 W/m2 unknown
13:13 89.6 °F 69.8 °F 30 in SSE 1.9 mph 3.7 mph 55% 0 in 861.00 W/m2 unknown
13:19 89.6 °F 69.8 °F 30 in ESE 1.9 mph 3.7 mph 55% 0 in 863.00 W/m2 unknown
13:24 89.6 °F 71.6 °F 30.1 in SE 2.5 mph 3.7 mph 55% 0 in 844.00 W/m2 unknown
13:29 89.6 °F 69.8 °F 30 in East 2.5 mph 3.7 mph 55% 0 in 854.00 W/m2 unknown
13:34 89.6 °F 71.6 °F 30 in ENE 3.1 mph 6.2 mph 56% 0 in 863.00 W/m2 unknown
13:39 89.6 °F 71.6 °F 30 in SSE 3.7 mph 6.2 mph 54% 0 in 861.00 W/m2 unknown
13:44 89.6 °F 69.8 °F 30 in SSE 3.7 mph 6.2 mph 54% 0 in 856.00 W/m2 unknown
13:49 89.6 °F 69.8 °F 30 in ENE 4.3 mph 6.8 mph 53% 0 in 854.00 W/m2 unknown
13:54 89.6 °F 71.6 °F 30 in NNE 3.7 mph 6.8 mph 54% 0 in 854.00 W/m2 unknown
13:59 89.6 °F 71.6 °F 30 in NNE 3.1 mph 6.8 mph 53% 0 in 849.00 W/m2 unknown
14:04 91.4 °F 69.8 °F 30 in ENE 2.5 mph 6.2 mph 52% 0 in 858.00 W/m2 unknown
14:09 91.4 °F 69.8 °F 30 in ESE 2.5 mph 6.2 mph 53% 0 in 858.00 W/m2 unknown
14:14 91.4 °F 71.6 °F 30 in ESE 3.1 mph 6.2 mph 54% 0 in 835.00 W/m2 unknown
14:19 89.6 °F 69.8 °F 30 in ESE 1.9 mph 6.2 mph 53% 0 in 812.00 W/m2 unknown
14:24 89.6 °F 71.6 °F 30 in North 1.2 mph 3.7 mph 55% 0 in 856.00 W/m2 unknown
14:29 91.4 °F 71.6 °F 30 in NNW 1.9 mph 3.7 mph 53% 0 in 856.00 W/m2 unknown
14:34 91.4 °F 69.8 °F 30 in NNE 1.9 mph 3.7 mph 52% 0 in 844.00 W/m2 unknown
14:39 91.4 °F 69.8 °F 30 in NW 1.9 mph 3.7 mph 53% 0 in 826.00 W/m2 unknown
14:44 91.4 °F 71.6 °F 30 in East 4.3 mph 8.1 mph 52% 0 in 844.00 W/m2 unknown
14:49 91.4 °F 71.6 °F 30 in ESE 5.6 mph 8.1 mph 51% 0 in 844.00 W/m2 unknown
14:54 91.4 °F 69.8 °F 30 in East 5 mph 8.1 mph 52% 0 in 809.00 W/m2 unknown
14:59 91.4 °F 69.8 °F 30 in East 5 mph 8.1 mph 51% 0 in 810.00 W/m2 unknown
15:04 91.4 °F 69.8 °F 30 in ESE 5 mph 8.1 mph 50% 0 in 809.00 W/m2 unknown
15:09 91.4 °F 69.8 °F 30 in ESE 3.1 mph 6.8 mph 52% 0 in 784.00 W/m2 unknown
15:14 91.4 °F 69.8 °F 30 in East 4.3 mph 6.2 mph 51% 0 in 802.00 W/m2 unknown
15:19 91.4 °F 69.8 °F 30 in ESE 4.3 mph 6.2 mph 50% 0 in 810.00 W/m2 unknown
15:24 91.4 °F 71.6 °F 30 in South 3.1 mph 6.2 mph 52% 0 in 768.00 W/m2 unknown
15:29 91.4 °F 71.6 °F 30 in ESE 3.1 mph 6.2 mph 52% 0 in 765.00 W/m2 unknown
15:34 91.4 °F 69.8 °F 30 in NE 3.1 mph 5 mph 50% 0 in 749.00 W/m2 unknown
15:39 91.4 °F 69.8 °F 30 in ENE 3.1 mph 6.2 mph 49% 0 in 744.00 W/m2 unknown
15:44 91.4 °F 69.8 °F 30 in ESE 3.1 mph 6.2 mph 49% 0 in 744.00 W/m2 unknown
15:49 91.4 °F 69.8 °F 30 in ESE 3.1 mph 5 mph 49% 0 in 729.00 W/m2 unknown
15:54 91.4 °F 69.8 °F 30 in ESE 3.7 mph 6.2 mph 49% 0 in 728.00 W/m2 unknown
15:59 91.4 °F 69.8 °F 30 in East 3.7 mph 6.8 mph 48% 0 in 696.00 W/m2 unknown
16:04 91.4 °F 68 °F 30 in ESE 5 mph 6.8 mph 47% 0 in 724.00 W/m2 unknown
16:09 91.4 °F 69.8 °F 30 in ESE 5 mph 6.8 mph 48% 0 in 721.00 W/m2 unknown
16:14 91.4 °F 69.8 °F 30 in SE 5 mph 6.8 mph 48% 0 in 679.00 W/m2 unknown
16:19 91.4 °F 69.8 °F 30 in East 3.7 mph 6.8 mph 49% 0 in 679.00 W/m2 unknown
16:22 91.4 °F 68 °F 30 in East 3.7 mph 6.8 mph 47% 0 in 621.00 W/m2 unknown
16:29 91.4 °F 68 °F 30 in East 3.7 mph 6.8 mph 47% 0 in 629.00 W/m2 unknown
16:34 91.4 °F 68 °F 30 in ESE 3.7 mph 5 mph 47% 0 in 629.00 W/m2 unknown
16:39 91.4 °F 68 °F 30 in East 2.5 mph 5 mph 47% 0 in 606.00 W/m2 unknown
16:44 91.4 °F 68 °F 30 in East 3.1 mph 5 mph 47% 0 in 608.00 W/m2 unknown
16:49 91.4 °F 68 °F 30 in East 3.1 mph 6.8 mph 46% 0 in 585.00 W/m2 unknown
16:54 93.2 °F 68 °F 30 in East 4.3 mph 6.8 mph 46% 0 in 584.00 W/m2 unknown
16:59 93.2 °F 68 °F 30 in ESE 4.3 mph 6.8 mph 46% 0 in 570.00 W/m2 unknown
17:04 93.2 °F 68 °F 30 in ESE 3.7 mph 6.8 mph 45% 0 in 564.00 W/m2 unknown
17:09 91.4 °F 68 °F 30 in ESE 3.7 mph 6.8 mph 45% 0 in 554.00 W/m2 unknown
17:14 91.4 °F 68 °F 30 in East 4.3 mph 6.8 mph 47% 0 in 533.00 W/m2 unknown
17:19 91.4 °F 68 °F 30 in ESE 3.1 mph 6.8 mph 46% 0 in 519.00 W/m2 unknown
17:24 91.4 °F 68 °F 30 in ESE 3.1 mph 5 mph 47% 0 in 517.00 W/m2 unknown
17:29 91.4 °F 68 °F 30 in ESE 3.1 mph 3.7 mph 45% 0 in 490.00 W/m2 unknown
17:34 91.4 °F 66.2 °F 30 in ESE 3.1 mph 3.7 mph 44% 0 in 476.00 W/m2 unknown
17:39 91.4 °F 68 °F 30 in East 1.9 mph 3.7 mph 46% 0 in 462.00 W/m2 unknown
17:44 91.4 °F 68 °F 30 in ESE 1.2 mph 3.7 mph 46% 0 in 452.00 W/m2 unknown
17:49 91.4 °F 68 °F 30 in East 2.5 mph 3.7 mph 46% 0 in 410.00 W/m2 unknown
17:54 91.4 °F 68 °F 30 in East 2.5 mph 3.7 mph 45% 0 in 380.00 W/m2 unknown
17:59 91.4 °F 68 °F 30 in East 1.9 mph 3.7 mph 46% 0 in 380.00 W/m2 unknown
18:04 91.4 °F 68 °F 30 in ESE 3.1 mph 5 mph 48% 0 in 399.00 W/m2 unknown
18:09 91.4 °F 68 °F 30 in ESE 3.1 mph 5 mph 47% 0 in 399.00 W/m2 unknown
18:14 91.4 °F 66.2 °F 30 in ESE 3.1 mph 5 mph 45% 0 in 387.00 W/m2 unknown
18:19 91.4 °F 66.2 °F 30 in East 3.1 mph 5 mph 45% 0 in 357.00 W/m2 unknown
18:24 91.4 °F 68 °F 30 in ENE 3.1 mph 5 mph 45% 0 in 355.00 W/m2 unknown
18:29 91.4 °F 68 °F 30 in East 3.1 mph 5 mph 45% 0 in 330.00 W/m2 unknown
18:34 91.4 °F 68 °F 30 in ENE 3.1 mph 4.3 mph 45% 0 in 297.00 W/m2 unknown
18:39 91.4 °F 68 °F 30 in ENE 2.5 mph 5 mph 45% 0 in 294.00 W/m2 unknown
18:44 91.4 °F 68 °F 30 in East 3.1 mph 5 mph 46% 0 in 272.00 W/m2 unknown
18:49 91.4 °F 68 °F 30 in East 2.5 mph 5 mph 48% 0 in 230.00 W/m2 unknown
18:54 91.4 °F 68 °F 30 in East 2.5 mph 3.7 mph 47% 0 in 190.00 W/m2 unknown
18:59 91.4 °F 68 °F 30 in East 2.5 mph 3.7 mph 48% 0 in 188.00 W/m2 unknown
19:04 91.4 °F 68 °F 30 in ENE 2.5 mph 3.7 mph 48% 0 in 214.00 W/m2 unknown
19:09 91.4 °F 68 °F 30 in ENE 2.5 mph 3.7 mph 48% 0 in 214.00 W/m2 unknown
19:13 91.4 °F 68 °F 30 in ENE 2.5 mph 3.7 mph 48% 0 in 185.00 W/m2 unknown
19:17 91.4 °F 68 °F 30 in NE 2.5 mph 3.7 mph 48% 0 in 149.00 W/m2 unknown
19:24 91.4 °F 68 °F 30 in East 2.5 mph 3.7 mph 48% 0 in 137.00 W/m2 unknown
19:29 89.6 °F 69.8 °F 30 in ENE 2.5 mph 3.7 mph 53% 0 in 137.00 W/m2 unknown
19:34 89.6 °F 71.6 °F 30 in ENE 2.5 mph 3.7 mph 55% 0 in 125.00 W/m2 unknown
19:39 89.6 °F 71.6 °F 30 in ENE 1.9 mph 3.1 mph 56% 0 in 125.00 W/m2 unknown
19:44 89.6 °F 71.6 °F 30 in ENE 1.9 mph 3.7 mph 56% 0 in 90.00 W/m2 unknown
19:49 89.6 °F 71.6 °F 30 in ENE 2.5 mph 3.7 mph 56% 0 in 88.00 W/m2 unknown
19:54 89.6 °F 69.8 °F 30 in ENE 2.5 mph 3.7 mph 55% 0 in 76.00 W/m2 unknown
19:59 87.8 °F 69.8 °F 30 in ENE 2.5 mph 3.7 mph 54% 0 in 65.00 W/m2 unknown
20:04 87.8 °F 69.8 °F 30 in ENE 2.5 mph 3.7 mph 53% 0 in 62.00 W/m2 unknown
20:08 87.8 °F 68 °F 30 in ENE 2.5 mph 3.7 mph 52% 0 in 54.00 W/m2 unknown
20:14 87.8 °F 69.8 °F 30 in ENE 3.1 mph 3.7 mph 54% 0 in 47.00 W/m2 unknown
20:19 87.8 °F 69.8 °F 30 in East 3.1 mph 3.7 mph 57% 0 in 42.00 W/m2 unknown
20:24 87.8 °F 69.8 °F 30 in ESE 2.5 mph 3.7 mph 56% 0 in 40.00 W/m2 unknown
20:29 86 °F 68 °F 30 in ESE 2.5 mph 3.7 mph 56% 0 in 37.00 W/m2 unknown
20:34 86 °F 69.8 °F 30 in ENE 1.9 mph 3.7 mph 57% 0 in 32.00 W/m2 unknown
20:39 86 °F 69.8 °F 30 in ENE 1.9 mph 3.7 mph 57% 0 in 26.00 W/m2 unknown
20:44 86 °F 69.8 °F 30 in ENE 1.9 mph 3.7 mph 57% 0 in 23.00 W/m2 unknown
20:49 86 °F 68 °F 30 in ENE 3.1 mph 5 mph 56% 0 in 18.00 W/m2 unknown
20:54 86 °F 68 °F 30 in East 5 mph 8.1 mph 56% 0 in 12.00 W/m2 unknown
20:59 86 °F 69.8 °F 30 in ESE 5.6 mph 8.1 mph 59% 0 in 7.00 W/m2 unknown
21:04 86 °F 69.8 °F 30 in ESE 5 mph 8.1 mph 59% 0 in 0.00 W/m2 unknown
21:09 84.2 °F 69.8 °F 30 in ESE 3.7 mph 6.8 mph 60% 0 in 0.00 W/m2 unknown
21:14 84.2 °F 69.8 °F 30 in ESE 4.3 mph 6.8 mph 60% 0 in 0.00 W/m2 unknown
21:19 84.2 °F 68 °F 30 in ESE 5.6 mph 8.1 mph 60% 0 in 0.00 W/m2 unknown
21:24 84.2 °F 68 °F 30 in ESE 5.6 mph 8.1 mph 60% 0 in 0.00 W/m2 unknown
21:29 84.2 °F 68 °F 30 in ESE 5 mph 9.3 mph 60% 0 in 0.00 W/m2 unknown
21:34 84.2 °F 68 °F 30 in ESE 6.2 mph 9.3 mph 59% 0 in 0.00 W/m2 unknown
21:39 84.2 °F 66.2 °F 30 in ESE 6.2 mph 9.3 mph 58% 0 in 0.00 W/m2 unknown
21:44 82.4 °F 66.2 °F 30 in ESE 6.2 mph 8.1 mph 57% 0 in 0.00 W/m2 unknown
21:49 82.4 °F 66.2 °F 30 in ESE 6.2 mph 8.1 mph 57% 0 in 0.00 W/m2 unknown
21:54 82.4 °F 66.2 °F 30.1 in SE 6.2 mph 9.3 mph 56% 0 in 0.00 W/m2 unknown
21:59 82.4 °F 64.4 °F 30.1 in ESE 6.2 mph 9.3 mph 55% 0 in 0.00 W/m2 unknown
22:04 82.4 °F 64.4 °F 30.1 in ESE 6.2 mph 8.7 mph 55% 0 in 0.00 W/m2 unknown
22:09 82.4 °F 64.4 °F 30.1 in East 5 mph 8.1 mph 55% 0 in 0.00 W/m2 unknown
22:14 82.4 °F 64.4 °F 30.1 in East 5 mph 8.1 mph 56% 0 in 0.00 W/m2 unknown
22:19 82.4 °F 64.4 °F 30.1 in East 5 mph 6.8 mph 57% 0 in 0.00 W/m2 unknown
22:24 80.6 °F 64.4 °F 30.1 in ESE 4.3 mph 6.8 mph 57% 0 in 0.00 W/m2 unknown
22:29 80.6 °F 64.4 °F 30.1 in East 4.3 mph 8.1 mph 57% 0 in 0.00 W/m2 unknown
22:34 80.6 °F 64.4 °F 30.1 in East 5 mph 8.1 mph 58% 0 in 0.00 W/m2 unknown
22:39 80.6 °F 64.4 °F 30.1 in East 5 mph 8.1 mph 58% 0 in 0.00 W/m2 unknown
22:44 80.6 °F 64.4 °F 30.1 in ENE 3.1 mph 8.1 mph 58% 0 in 0.00 W/m2 unknown
22:49 80.6 °F 62.6 °F 30.1 in NE 5 mph 6.8 mph 57% 0 in 0.00 W/m2 unknown
22:54 80.6 °F 64.4 °F 30.1 in NE 5 mph 6.8 mph 58% 0 in 0.00 W/m2 unknown
22:59 80.6 °F 64.4 °F 30.1 in ENE 5 mph 6.8 mph 58% 0 in 0.00 W/m2 unknown
23:04 78.8 °F 64.4 °F 30.1 in NE 5.6 mph 8.1 mph 59% 0 in 0.00 W/m2 unknown
23:09 78.8 °F 64.4 °F 30.1 in NE 6.2 mph 8.1 mph 59% 0 in 0.00 W/m2 unknown
23:14 78.8 °F 64.4 °F 30.1 in NE 6.2 mph 8.1 mph 60% 0 in 0.00 W/m2 unknown
23:19 78.8 °F 64.4 °F 30.1 in ENE 6.2 mph 8.1 mph 61% 0 in 0.00 W/m2 unknown
23:24 78.8 °F 64.4 °F 30.1 in NE 6.2 mph 8.1 mph 61% 0 in 0.00 W/m2 unknown
23:29 77 °F 64.4 °F 30.1 in NE 6.8 mph 10.6 mph 62% 0 in 0.00 W/m2 unknown
23:34 77 °F 62.6 °F 30.1 in ENE 6.8 mph 10.6 mph 61% 0 in 0.00 W/m2 unknown
23:39 77 °F 62.6 °F 30.1 in NE 7.5 mph 10.6 mph 61% 0 in 0.00 W/m2 unknown
23:44 77 °F 62.6 °F 30.1 in ENE 7.5 mph 10.6 mph 61% 0 in 0.00 W/m2 unknown
23:49 77 °F 62.6 °F 30.1 in NE 6.8 mph 10.6 mph 61% 0 in 0.00 W/m2 unknown
23:54 77 °F 62.6 °F 30.1 in ENE 6.8 mph 9.9 mph 62% 0 in 0.00 W/m2 unknown
23:59 77 °F 62.6 °F 30.1 in ENE 6.2 mph 9.3 mph 62% 0 in 0.00 W/m2 unknown
Stazione Meteorologica MeteoMincio Rivalta s/M (MN)
Con i complimenti di Weather Underground - 4 mb



METEO PILLOLE
Il nevaio perenne più meridionale d'Europa sotto i 1500 m
Fondo della Salsa, Teramo, Abruzzo, Italia:
Si estende tra circa 1100 m e circa 1200 m di quota. Riceve neve in grosse quantità per accumuli valanghivi provenienti dalla sovrastante e quasi verticale parete nord del Monte Camicia, 2565 m, nel gruppo montuoso del Gran Sasso d'Italia. Riceve pochissime ore di sole unicamente in piena estate, restando totalmente in ombra per la maggior parte dell'anno.
Share

Non seguire questo link o sarai bannato dal sito!